Location: Unspecified
(0.0000°N, 0.0000°E)
Time: 17:56:20
(UTC+00:00)

DMSP B5D2-3 - Pass Details

Date: 27 October 2019
Orbit: 821 x 838 km, 98.7° (Epoch: 14 November)

Event Time Altitude Azimuth Distance (km) Brightness Sun altitude
Rises 18:28:29 0° 358° (N) 3,369 8.2 -10.9°
Reaches altitude 10° 18:30:58 10° 350° (N) 2,436 7.6 -11.5°
Maximum altitude 18:35:57 39° 283° (WNW) 1,231 6.6 -12.7°
Drops below altitude 10° 18:40:57 10° 215° (SW) 2,435 8.3 -13.9°
Sets 18:43:26 0° 207° (SSW) 3,368 9.0 -14.5°
